Skip to main content

Évora (Aeródromo)

ID 1200843 · 38.5296, -7.8916 map

Latest reading · 2026-05-09 19:00 (Europe/Lisbon)

Temperature
17.4 °C
Humidity
64 %
Pressure
1,008.0 hPa
Precipitation
0.0 mm
Radiation
Wind speed
32.4 km/h
Wind direction
SW · South-west

24-hour history

Time (Europe/Lisbon) Temp Humidity Pressure Rain Wind Dir
2026-05-09 19:00 17.4 °C 64 % 1,008.0 0.0 mm 32.4 km/h SW
2026-05-09 18:00 17.7 °C 62 % 1,007.0 0.0 mm 33.5 km/h SW
2026-05-09 17:00 17.6 °C 74 % 1,006.6 0.1 mm 36.0 km/h SW
2026-05-09 16:00 19.2 °C 57 % 1,006.5 0.3 mm 25.9 km/h S
2026-05-09 15:00 19.6 °C 52 % 1,006.2 0.0 mm 28.8 km/h SW
2026-05-09 14:00 18.7 °C 61 % 1,006.2 0.0 mm 30.2 km/h SW
2026-05-09 13:00 17.5 °C 68 % 1,006.0 0.0 mm 30.6 km/h S
2026-05-09 12:00 16.4 °C 78 % 1,005.4 0.0 mm 32.8 km/h SW
2026-05-09 11:00 14.6 °C 93 % 1,004.3 0.3 mm 30.2 km/h SW
2026-05-09 10:00 13.9 °C 94 % 1,004.2 0.5 mm 18.7 km/h SE
2026-05-09 09:00 13.5 °C 96 % 1,004.7 0.3 mm 17.3 km/h SE
2026-05-09 08:00 12.4 °C 96 % 1,004.8 0.8 mm 14.8 km/h SE
2026-05-09 07:00 12.5 °C 93 % 1,004.7 0.6 mm 16.2 km/h SE
2026-05-09 06:00 12.5 °C 92 % 1,005.1 0.0 mm 16.9 km/h SE
2026-05-09 05:00 12.7 °C 92 % 1,005.7 0.0 mm 11.9 km/h SE
2026-05-09 04:00 12.9 °C 95 % 1,006.1 0.0 mm 16.6 km/h SE
2026-05-09 03:00 12.7 °C 95 % 1,006.8 0.1 mm 10.8 km/h SE
2026-05-09 02:00 12.1 °C 96 % 1,007.6 0.0 mm 14.0 km/h SE
2026-05-09 01:00 11.3 °C 95 % 1,008.4 0.0 mm 9.4 km/h SE
2026-05-09 00:00 12.4 °C 92 % 1,008.8 1.1 mm 11.9 km/h SE
2026-05-08 23:00 13.5 °C 86 % 1,008.8 0.4 mm 19.4 km/h S
2026-05-08 22:00 14.3 °C 79 % 1,008.4 0.1 mm 15.1 km/h SW
2026-05-08 21:00 15.6 °C 69 % 1,007.5 0.0 mm 11.9 km/h W
2026-05-08 20:00 17.0 °C 62 % 1,007.2 0.0 mm 14.4 km/h SW